Location: Bobcat Ridge
(40.4796°N, 105.2255°W)
Time: 03:51:35
(UTC-06:00)

ISS - Visible Passes

Search period start: 27 May 2017 00:00
Search period end: 06 June 2017 00:00
Orbit: 402 x 408 km, 51.6° (Epoch: 27 May)

Date Brightness Start Highest point End Pass type
(mag) Time Alt. Az. Time Alt. Az. Time Alt. Az.
27 May -0.4 00:44:02 10° NNW 00:45:34 13° N 00:47:07 10° NE visible
27 May -1.9 02:19:57 10° NW 02:22:53 30° NNE 02:23:11 29° NE visible
27 May -2.1 04:01:13 19° S 04:01:13 19° S 04:02:22 10° SSE visible
27 May -0.8 22:13:17 10° WNW 22:15:43 19° NNW 22:18:08 10° NNE visible
27 May -0.4 23:51:52 10° NNW 23:53:13 12° N 23:54:33 10° NNE visible
28 May -1.1 01:28:06 10° NNW 01:30:11 20° N 01:30:11 20° N visible
28 May -1.4 21:20:38 10° W 21:23:28 26° NNW 21:26:17 10° NE visible
28 May -0.5 22:59:23 10° NNW 23:00:50 12° N 23:02:16 10° NNE visible
29 May -0.9 00:36:14 10° NNW 00:38:23 16° NNE 00:39:01 15° NNE visible
29 May -0.7 22:06:38 10° NW 22:08:27 14° N 22:10:15 10° NNE visible
29 May -0.7 23:44:20 10° NNW 23:46:01 13° N 23:47:43 10° NE visible
30 May -0.9 01:20:11 10° NW 01:20:50 14° NW 01:20:50 14° NW visible
30 May -0.8 21:13:50 10° WNW 21:16:05 17° NNW 21:18:21 10° NNE visible
30 May -0.6 22:52:14 10° NNW 22:53:37 12° N 22:55:00 10° NNE visible
31 May -1.2 00:28:18 10° NNW 00:30:11 21° N 00:30:11 21° N visible
31 May -0.7 21:59:49 10° NNW 22:01:11 12° N 22:02:34 10° NNE visible
31 May -1.2 23:36:24 10° NNW 23:38:42 17° NNE 23:39:37 16° NE visible
01 Jun -0.8 21:07:06 10° NW 21:08:46 13° N 21:10:25 10° NNE visible
01 Jun -0.9 22:44:29 10° NNW 22:46:20 14° NNE 22:48:11 10° NE visible
02 Jun -1.3 00:20:20 10° NW 00:21:43 21° NNW 00:21:43 21° NNW visible
02 Jun -0.8 21:52:26 10° NNW 21:53:55 12° N 21:55:22 10° NNE visible
02 Jun -1.9 23:28:23 10° NW 23:31:13 27° NNE 23:31:13 27° NNE visible
03 Jun -0.8 21:00:07 10° NNW 21:01:27 12° N 21:02:47 10° NNE visible
03 Jun -1.4 22:36:27 10° NNW 22:38:55 19° NNE 22:40:45 13° ENE visible
04 Jun -1.2 00:12:28 10° NW 00:13:23 17° NW 00:13:23 17° NW visible
04 Jun -1.1 21:44:30 10° NNW 21:46:32 15° NNE 21:48:34 10° NE visible
04 Jun -2.7 23:20:23 10° NW 23:22:57 43° N 23:22:57 43° N visible
05 Jun -2.3 22:28:22 10° NW 22:31:21 31° NNE 22:32:33 24° ENE visible
